Terminal Aerodrome Forecast
Issued by NWS Portland, OR

Home | Current Version | Previous Version | Text Only | Print | Product List | Glossary On
Versions: 1 2 3 4 5 6 7 8 9 10 11 12 13 14 15 16 17 18 19 20 21 22 23 24 25 26 27
000
FTUS46 KPQR 231120
TAFHIO
TAF
KHIO 231120Z 2312/2412 00000KT P6SM SKC
     FM231900 04005KT P6SM SKC
     FM232100 35009KT P6SM SKC
     FM240600 VRB03KT P6SM SKC=

USA.gov is the U.S. government's official web portal to all federal, state and local government web resources and services.